Satellite: CO-57
Catalog number: 27848
Epoch time:      09203.54194119
Element set:    0576
Inclination:      098.7151 deg
RA of node:       211.2681 deg
Eccentricity:    0.0010753
Arg of perigee:   046.9194 deg
Mean anomaly:     313.2880 deg
Mean motion:   14.20448607 rev/day
Decay rate:        3.1e-07 rev/day^2
Epoch rev:           31424
Checksum:              298

Satellite: AO-51
Catalog number: 28375
Epoch time:      09203.94161844
Element set:    0443
Inclination:      098.0516 deg
RA of node:       211.4592 deg
Eccentricity:    0.0085149
Arg of perigee:   017.0524 deg
Mean anomaly:     343.3494 deg
Mean motion:   14.40647445 rev/day
Decay rate:       -5.0e-08 rev/day^2
Epoch rev:           26610
Checksum:              294

Satellite: CO-56
Catalog number: 28941
Epoch time:      09203.91018633
Element set:    0279
Inclination:      098.1348 deg
RA of node:       025.1922 deg
Eccentricity:    0.0072433
Arg of perigee:   356.7892 deg
Mean anomaly:     003.2945 deg
Mean motion:   15.89132430 rev/day
Decay rate:     6.6373e-04 rev/day^2
Epoch rev:           19291
Checksum:              325

Satellite: GENESAT1
Catalog number: 29655
Epoch time:      09204.40438098
Element set:     764
Inclination:      040.0236 deg
RA of node:       316.2667 deg
Eccentricity:    0.0002464
Arg of perigee:   004.1694 deg
Mean anomaly:     355.9167 deg
Mean motion:   15.66281804 rev/day
Decay rate:      9.481e-05 rev/day^2
Epoch rev:           14815
Checksum:              308

Satellite: CP3
Catalog number: 31129
Epoch time:      09204.14045077
Element set:      82
Inclination:      097.9854 deg
RA of node:       255.4922 deg
Eccentricity:    0.0102532
Arg of perigee:   173.1395 deg
Mean anomaly:     187.1242 deg
Mean motion:   14.52148622 rev/day
Decay rate:       -1.5e-07 rev/day^2
Epoch rev:           12010
Checksum:              266

Satellite: CO-65
Catalog number: 32785
Epoch time:      09202.97587372
Element set:    0436
Inclination:      097.9432 deg
RA of node:       266.6521 deg
Eccentricity:    0.0013873
Arg of perigee:   280.0472 deg
Mean anomaly:     079.9168 deg
Mean motion:   14.81500670 rev/day
Decay rate:       -3.8e-07 rev/day^2
Epoch rev:           06659
Checksum:              338

Satellite: KKS-1
Catalog number: 33493
Epoch time:      09204.32044164
Element set:     592
Inclination:      098.0585 deg
RA of node:       316.6925 deg
Eccentricity:    0.0021316
Arg of perigee:   122.8858 deg
Mean anomaly:     237.4419 deg
Mean motion:   14.80701851 rev/day
Decay rate:       1.36e-06 rev/day^2
Epoch rev:            2681
Checksum:              294

Satellite: SOHLA-1
Catalog number: 33496
Epoch time:      09204.34037350
Element set:     556
Inclination:      098.0396 deg
RA of node:       313.0886 deg
Eccentricity:    0.0006854
Arg of perigee:   157.9145 deg
Mean anomaly:     202.2374 deg
Mean motion:   14.69440243 rev/day
Decay rate:       -1.6e-07 rev/day^2
Epoch rev:            2658
Checksum:              298

/EX
SB KEPS @ AMSAT  $ORB09204.W
Orbital Elements  09204.WEATHER

HR AMSAT ORBITAL ELEMENTS FOR WEATHER SATELLITES
FROM WA5QGD FORT WORTH,TX July 23, 2009
Send Subscribe/unsubscribe to KEPS at 
http://www.amsat.org/mailman/listinfo/keps
BID: ORB09204.W
TO ALL RADIO AMATEURS BT

Satellite: NOAA-10
Catalog number: 16969
Epoch time:      09203.62664804
Element set:    0696
Inclination:      098.6903 deg
RA of node:       230.0792 deg
Eccentricity:    0.0013168
Arg of perigee:   092.6729 deg
Mean anomaly:     267.5975 deg
Mean motion:   14.27390378 rev/day
Decay rate:       -8.3e-07 rev/day^2
Epoch rev:           18856
Checksum:              351

Satellite: NOAA-11
Catalog number: 19531
Epoch time:      09203.77752426
Element set:    0715
Inclination:      098.7850 deg
RA of node:       293.1821 deg
Eccentricity:    0.0011723
Arg of perigee:   011.1058 deg
Mean anomaly:     349.0369 deg
Mean motion:   14.14899084 rev/day
Decay rate:       -6.3e-07 rev/day^2
Epoch rev:           07455
Checksum:              305

Satellite: NOAA-12
Catalog number: 21263
Epoch time:      09203.97258906
Element set:    0220
Inclination:      098.7714 deg
RA of node:       212.0479 deg
Eccentricity:    0.0013440
Arg of perigee:   045.1831 deg
Mean anomaly:     315.0438 deg
Mean motion:   14.25586234 rev/day
Decay rate:        3.8e-07 rev/day^2
Epoch rev:           94549
Checksum:              293

Satellite: MET-3/5
Catalog number: 21655
Epoch time:      09203.93072753
Element set:    0745
Inclination:      082.5551 deg
RA of node:       181.2444 deg
Eccentricity:    0.0015065
Arg of perigee:   090.3640 deg
Mean anomaly:     269.9209 deg
Mean motion:   13.17019217 rev/day
Decay rate:        5.1e-07 rev/day^2
Epoch rev:           86233
Checksum:              290

Satellite: MET-2/21
Catalog number: 22782
Epoch time:      09203.75765513
Element set:     517
Inclination:      082.5497 deg
RA of node:       153.7953 deg
Eccentricity:    0.0020791
Arg of perigee:   246.2007 deg
Mean anomaly:     113.6980 deg
Mean motion:   13.83637293 rev/day
Decay rate:        4.0e-07 rev/day^2
Epoch rev:           80252
Checksum:              305

